Year,Month,Day,Hour,Minute,Value (Times are PST for temperature in C)
2017,09,21,00,00,11.10
2017,09,21,00,01,11.10
2017,09,21,00,02,11.10
2017,09,21,00,03,11.10
2017,09,21,00,04,11.10
2017,09,21,00,05,11.10
2017,09,21,00,06,11.10
2017,09,21,00,07,11.10
2017,09,21,00,08,11.10
2017,09,21,00,09,11.10
2017,09,21,00,10,11.10
2017,09,21,00,11,11.10
2017,09,21,00,12,11.10
2017,09,21,00,13,11.00
2017,09,21,00,14,10.90
2017,09,21,00,15,10.90
2017,09,21,00,16,10.90
2017,09,21,00,17,10.90
2017,09,21,00,18,10.90
2017,09,21,00,19,10.90
2017,09,21,00,20,10.90
2017,09,21,00,21,10.90
2017,09,21,00,22,10.90
2017,09,21,00,23,10.90
2017,09,21,00,24,10.90
2017,09,21,00,25,10.90
2017,09,21,00,26,10.90
2017,09,21,00,27,10.90
2017,09,21,00,28,10.90
2017,09,21,00,29,10.90
2017,09,21,00,30,10.90
2017,09,21,00,31,10.80
2017,09,21,00,32,10.80
2017,09,21,00,33,10.80
2017,09,21,00,34,10.80
2017,09,21,00,35,10.80
2017,09,21,00,36,10.80
2017,09,21,00,37,10.80
2017,09,21,00,38,10.80
2017,09,21,00,39,10.80
2017,09,21,00,40,10.80
2017,09,21,00,41,10.80
2017,09,21,00,42,10.80
2017,09,21,00,43,10.80
2017,09,21,00,44,10.80
2017,09,21,00,45,10.80
2017,09,21,00,46,10.80
2017,09,21,00,47,10.80
2017,09,21,00,48,10.80
2017,09,21,00,49,10.80
2017,09,21,00,50,10.80
2017,09,21,00,51,10.80
2017,09,21,00,52,10.80
2017,09,21,00,53,10.80
2017,09,21,00,54,10.80
2017,09,21,00,55,10.80
2017,09,21,00,56,10.80
2017,09,21,00,57,10.80
2017,09,21,00,58,10.80
2017,09,21,00,59,10.80
2017,09,21,01,00,10.80
2017,09,21,01,01,10.70
2017,09,21,01,02,10.70
2017,09,21,01,03,10.70
2017,09,21,01,04,10.70
2017,09,21,01,05,10.60
2017,09,21,01,06,10.60
2017,09,21,01,07,10.60
2017,09,21,01,08,10.60
2017,09,21,01,09,10.60
2017,09,21,01,10,10.60
2017,09,21,01,11,10.50
2017,09,21,01,12,10.40
2017,09,21,01,13,10.40
2017,09,21,01,14,10.40
2017,09,21,01,15,10.40
2017,09,21,01,16,10.40
2017,09,21,01,17,10.40
2017,09,21,01,18,10.40
2017,09,21,01,19,10.30
2017,09,21,01,20,10.30
2017,09,21,01,21,10.30
2017,09,21,01,22,10.20
2017,09,21,01,23,10.20
2017,09,21,01,24,10.10
2017,09,21,01,25,10.10
2017,09,21,01,26,10.10
2017,09,21,01,27,10.10
2017,09,21,01,28,10.00
2017,09,21,01,29,9.90
2017,09,21,01,30,9.90
2017,09,21,01,31,9.90
2017,09,21,01,32,9.90
2017,09,21,01,33,9.90
2017,09,21,01,34,9.90
2017,09,21,01,35,9.90
2017,09,21,01,36,9.90
2017,09,21,01,37,9.80
2017,09,21,01,38,9.80
2017,09,21,01,39,9.80
2017,09,21,01,40,9.80
2017,09,21,01,41,9.80
2017,09,21,01,42,9.80
2017,09,21,01,43,9.70
2017,09,21,01,44,9.70
2017,09,21,01,45,9.70
2017,09,21,01,46,9.70
2017,09,21,01,47,9.60
2017,09,21,01,48,9.60
2017,09,21,01,49,9.50
2017,09,21,01,50,9.50
2017,09,21,01,51,9.40
2017,09,21,01,52,9.40
2017,09,21,01,53,9.40
2017,09,21,01,54,9.40
2017,09,21,01,55,9.30
2017,09,21,01,56,9.30
2017,09,21,01,57,9.30
2017,09,21,01,58,9.20
2017,09,21,01,59,9.20
2017,09,21,02,00,9.20
2017,09,21,02,01,9.20
2017,09,21,02,02,9.20
2017,09,21,02,03,9.10
2017,09,21,02,04,9.10
2017,09,21,02,05,9.10
2017,09,21,02,06,9.00
2017,09,21,02,07,9.00
2017,09,21,02,08,9.00
2017,09,21,02,09,9.00
2017,09,21,02,10,8.90
2017,09,21,02,11,8.90
2017,09,21,02,12,8.90
2017,09,21,02,13,8.90
2017,09,21,02,14,8.90
2017,09,21,02,15,8.90
2017,09,21,02,16,8.90
2017,09,21,02,17,8.90
2017,09,21,02,18,8.80
2017,09,21,02,19,8.80
2017,09,21,02,20,8.80
2017,09,21,02,21,8.80
2017,09,21,02,22,8.80
2017,09,21,02,23,8.90
2017,09,21,02,24,8.90
2017,09,21,02,25,8.90
2017,09,21,02,26,8.90
2017,09,21,02,27,8.90
2017,09,21,02,28,8.90
2017,09,21,02,29,8.90
2017,09,21,02,30,8.90
2017,09,21,02,31,8.90
2017,09,21,02,32,8.90
2017,09,21,02,33,8.90
2017,09,21,02,34,8.90
2017,09,21,02,35,8.90
2017,09,21,02,36,8.80
2017,09,21,02,37,8.80
2017,09,21,02,38,8.80
2017,09,21,02,39,8.80
2017,09,21,02,40,8.80
2017,09,21,02,41,8.80
2017,09,21,02,42,8.80
2017,09,21,02,43,8.80
2017,09,21,02,44,8.80
2017,09,21,02,45,8.80
2017,09,21,02,46,8.80
2017,09,21,02,47,8.80
2017,09,21,02,48,8.80
2017,09,21,02,49,8.80
2017,09,21,02,50,8.80
2017,09,21,02,51,8.80
2017,09,21,02,52,8.80
2017,09,21,02,53,8.80
2017,09,21,02,54,8.80
2017,09,21,02,55,8.80
2017,09,21,02,56,8.80
2017,09,21,02,57,8.80
2017,09,21,02,58,8.80
2017,09,21,02,59,8.80
2017,09,21,03,00,8.80
2017,09,21,03,01,8.80
2017,09,21,03,02,8.90
2017,09,21,03,03,8.90
2017,09,21,03,04,8.90
2017,09,21,03,05,8.90
2017,09,21,03,06,8.90
2017,09,21,03,07,8.90
2017,09,21,03,08,8.90
2017,09,21,03,09,8.90
2017,09,21,03,10,8.90
2017,09,21,03,11,8.90
2017,09,21,03,12,8.90
2017,09,21,03,13,8.90
2017,09,21,03,14,8.90
2017,09,21,03,15,8.90
2017,09,21,03,16,8.90
2017,09,21,03,17,8.90
2017,09,21,03,18,8.90
2017,09,21,03,19,8.90
2017,09,21,03,20,8.80
2017,09,21,03,21,8.80
2017,09,21,03,22,8.80
2017,09,21,03,23,8.80
2017,09,21,03,24,8.80
2017,09,21,03,25,8.80
2017,09,21,03,26,8.80
2017,09,21,03,27,8.70
2017,09,21,03,28,8.70
2017,09,21,03,29,8.70
2017,09,21,03,30,8.70
2017,09,21,03,31,8.70
2017,09,21,03,32,8.70
2017,09,21,03,33,8.70
2017,09,21,03,34,8.70
2017,09,21,03,35,8.70
2017,09,21,03,36,8.70
2017,09,21,03,37,8.70
2017,09,21,03,38,8.70
2017,09,21,03,39,8.70
2017,09,21,03,40,8.70
2017,09,21,03,41,8.70
2017,09,21,03,42,8.70
2017,09,21,03,43,8.70
2017,09,21,03,44,8.70
2017,09,21,03,45,8.70
2017,09,21,03,46,8.70
2017,09,21,03,47,8.70
2017,09,21,03,48,8.70
2017,09,21,03,49,8.70
2017,09,21,03,50,8.70
2017,09,21,03,51,8.70
2017,09,21,03,52,8.70
2017,09,21,03,53,8.60
2017,09,21,03,54,8.60
2017,09,21,03,55,8.60
2017,09,21,03,56,8.60
2017,09,21,03,57,8.60
2017,09,21,03,58,8.60
2017,09,21,03,59,8.60
2017,09,21,04,00,8.70
2017,09,21,04,01,8.70
2017,09,21,04,02,8.70
2017,09,21,04,03,8.70
2017,09,21,04,04,8.70
2017,09,21,04,05,8.80
2017,09,21,04,06,8.80
2017,09,21,04,07,8.80
2017,09,21,04,08,8.90
2017,09,21,04,09,8.90
2017,09,21,04,10,8.90
2017,09,21,04,11,9.00
2017,09,21,04,12,9.00
2017,09,21,04,13,9.00
2017,09,21,04,14,9.10
2017,09,21,04,15,9.20
2017,09,21,04,16,9.20
2017,09,21,04,17,9.20
2017,09,21,04,18,9.30
2017,09,21,04,19,9.30
2017,09,21,04,20,9.40
2017,09,21,04,21,9.40
2017,09,21,04,22,9.50
2017,09,21,04,23,9.60
2017,09,21,04,24,9.70
2017,09,21,04,25,9.70
2017,09,21,04,26,9.70
2017,09,21,04,27,9.80
2017,09,21,04,28,9.80
2017,09,21,04,29,9.80
2017,09,21,04,30,9.90
2017,09,21,04,31,9.90
2017,09,21,04,32,9.90
2017,09,21,04,33,9.90
2017,09,21,04,34,10.10
2017,09,21,04,35,10.10
2017,09,21,04,36,10.10
2017,09,21,04,37,10.10
2017,09,21,04,38,10.10
2017,09,21,04,39,10.10
2017,09,21,04,40,10.10
2017,09,21,04,41,10.10
2017,09,21,04,42,10.20
2017,09,21,04,43,10.20
2017,09,21,04,44,10.20
2017,09,21,04,45,10.20
2017,09,21,04,46,10.20
2017,09,21,04,47,10.20
2017,09,21,04,48,10.20
2017,09,21,04,49,10.20
2017,09,21,04,50,10.20
2017,09,21,04,51,10.20
2017,09,21,04,52,10.20
2017,09,21,04,53,10.20
2017,09,21,04,54,10.20
2017,09,21,04,55,10.20
2017,09,21,04,56,10.20
2017,09,21,04,57,10.20
2017,09,21,04,58,10.20
2017,09,21,04,59,10.20
2017,09,21,05,00,10.20
2017,09,21,05,01,10.20
2017,09,21,05,02,10.20
2017,09,21,05,03,10.20
2017,09,21,05,04,10.10
2017,09,21,05,05,10.10
2017,09,21,05,06,10.10
2017,09,21,05,07,10.10
2017,09,21,05,08,10.10
2017,09,21,05,09,10.10
2017,09,21,05,10,10.10
2017,09,21,05,11,10.10
2017,09,21,05,12,10.10
2017,09,21,05,13,10.10
2017,09,21,05,14,10.10
2017,09,21,05,15,10.00
2017,09,21,05,16,9.90
2017,09,21,05,17,9.90
2017,09,21,05,18,9.90
2017,09,21,05,19,9.90
2017,09,21,05,20,9.90
2017,09,21,05,21,9.90
2017,09,21,05,22,9.90
2017,09,21,05,23,9.90
2017,09,21,05,24,9.90
2017,09,21,05,25,9.90
2017,09,21,05,26,9.90
2017,09,21,05,27,9.90
2017,09,21,05,28,9.90
2017,09,21,05,29,9.80
2017,09,21,05,30,9.80
2017,09,21,05,31,9.80
2017,09,21,05,32,9.80
2017,09,21,05,33,9.80
2017,09,21,05,34,9.70
2017,09,21,05,35,9.70
2017,09,21,05,36,9.70
2017,09,21,05,37,9.70
2017,09,21,05,38,9.70
2017,09,21,05,39,9.70
2017,09,21,05,40,9.70
2017,09,21,05,41,9.70
2017,09,21,05,42,9.70
2017,09,21,05,43,9.70
2017,09,21,05,44,9.70
2017,09,21,05,45,9.70
2017,09,21,05,46,9.70
2017,09,21,05,47,9.70
2017,09,21,05,48,9.70
2017,09,21,05,49,9.70
2017,09,21,05,50,9.70
2017,09,21,05,51,9.70
2017,09,21,05,52,9.70
2017,09,21,05,53,9.70
2017,09,21,05,54,9.70
2017,09,21,05,55,9.70
2017,09,21,05,56,9.60
2017,09,21,05,57,9.60
2017,09,21,05,58,9.60
2017,09,21,05,59,9.60
2017,09,21,06,00,9.60
2017,09,21,06,01,9.60
2017,09,21,06,02,9.60
2017,09,21,06,03,9.60
2017,09,21,06,04,9.60
2017,09,21,06,05,9.60
2017,09,21,06,06,9.60
2017,09,21,06,07,9.60
2017,09,21,06,08,9.60
2017,09,21,06,09,9.60
2017,09,21,06,10,9.60
2017,09,21,06,11,9.60
2017,09,21,06,12,9.60
2017,09,21,06,13,9.60
2017,09,21,06,14,9.60
2017,09,21,06,15,9.60
2017,09,21,06,16,9.60
2017,09,21,06,17,9.60
2017,09,21,06,18,9.60
2017,09,21,06,19,9.60
2017,09,21,06,20,9.50
2017,09,21,06,21,9.50
2017,09,21,06,22,9.50
2017,09,21,06,23,9.50
2017,09,21,06,24,9.60
2017,09,21,06,25,9.60
2017,09,21,06,26,9.60
2017,09,21,06,27,9.60
2017,09,21,06,28,9.60
2017,09,21,06,29,9.60
2017,09,21,06,30,9.60
2017,09,21,06,31,9.60
2017,09,21,06,32,9.60
2017,09,21,06,33,9.60
2017,09,21,06,34,9.60
2017,09,21,06,35,9.60
2017,09,21,06,36,9.60
2017,09,21,06,37,9.60
2017,09,21,06,38,9.60
2017,09,21,06,39,9.70
2017,09,21,06,40,9.70
2017,09,21,06,41,9.70
2017,09,21,06,42,9.70
2017,09,21,06,43,9.70
2017,09,21,06,44,9.70
2017,09,21,06,45,9.70
2017,09,21,06,46,9.70
2017,09,21,06,47,9.70
2017,09,21,06,48,9.70
2017,09,21,06,49,9.70
2017,09,21,06,50,9.70
2017,09,21,06,51,9.70
2017,09,21,06,52,9.70
2017,09,21,06,53,9.70
2017,09,21,06,54,9.70
2017,09,21,06,55,9.70
2017,09,21,06,56,9.70
2017,09,21,06,57,9.70
2017,09,21,06,58,9.70
2017,09,21,06,59,9.70
2017,09,21,07,00,9.70
2017,09,21,07,01,9.70
2017,09,21,07,02,9.70
2017,09,21,07,03,9.70
2017,09,21,07,04,9.70
2017,09,21,07,05,9.60
2017,09,21,07,06,9.60
2017,09,21,07,07,9.60
2017,09,21,07,08,9.60
2017,09,21,07,09,9.60
2017,09,21,07,10,9.70
2017,09,21,07,11,9.70
2017,09,21,07,12,9.70
2017,09,21,07,13,9.70
2017,09,21,07,14,9.70
2017,09,21,07,15,9.70
2017,09,21,07,16,9.70
2017,09,21,07,17,9.70
2017,09,21,07,18,9.70
2017,09,21,07,19,9.70
2017,09,21,07,20,9.70
2017,09,21,07,21,9.70
2017,09,21,07,22,9.70
2017,09,21,07,23,9.70
2017,09,21,07,24,9.70
2017,09,21,07,25,9.70
2017,09,21,07,26,9.70
2017,09,21,07,27,9.70
2017,09,21,07,28,9.70
2017,09,21,07,29,9.70
2017,09,21,07,30,9.70
2017,09,21,07,31,9.70
2017,09,21,07,32,9.70
2017,09,21,07,33,9.70
2017,09,21,07,34,9.70
2017,09,21,07,35,9.70
2017,09,21,07,36,9.70
2017,09,21,07,37,9.70
2017,09,21,07,38,9.70
2017,09,21,07,39,9.70
2017,09,21,07,40,9.70
2017,09,21,07,41,9.70
2017,09,21,07,42,9.70
2017,09,21,07,43,9.70
2017,09,21,07,44,9.80
2017,09,21,07,45,9.80
2017,09,21,07,46,9.80
2017,09,21,07,47,9.80
2017,09,21,07,48,9.80
2017,09,21,07,49,9.80
2017,09,21,07,50,9.80
2017,09,21,07,51,9.90
2017,09,21,07,52,9.90
2017,09,21,07,53,9.90
2017,09,21,07,54,9.90
2017,09,21,07,55,9.90
2017,09,21,07,56,10.00
2017,09,21,07,57,10.10
2017,09,21,07,58,10.10
2017,09,21,07,59,10.10
2017,09,21,08,00,10.10
2017,09,21,08,01,10.10
2017,09,21,08,02,10.10
2017,09,21,08,03,10.10
2017,09,21,08,04,10.10
2017,09,21,08,05,10.10
2017,09,21,08,06,10.10
2017,09,21,08,07,10.10
2017,09,21,08,08,10.10
2017,09,21,08,09,10.20
2017,09,21,08,10,10.20
2017,09,21,08,11,10.20
2017,09,21,08,12,10.30
2017,09,21,08,13,10.30
2017,09,21,08,14,10.40
2017,09,21,08,15,10.40
2017,09,21,08,16,10.50
2017,09,21,08,17,10.60
2017,09,21,08,18,10.70
2017,09,21,08,19,10.70
2017,09,21,08,20,10.80
2017,09,21,08,21,10.90
2017,09,21,08,22,10.90
2017,09,21,08,23,11.00
2017,09,21,08,24,11.10
2017,09,21,08,25,11.10
2017,09,21,08,26,11.10
2017,09,21,08,27,11.20
2017,09,21,08,28,11.20
2017,09,21,08,29,11.30
2017,09,21,08,30,11.30
2017,09,21,08,31,11.40
2017,09,21,08,32,11.40
2017,09,21,08,33,11.40
2017,09,21,08,34,11.40
2017,09,21,08,35,11.40
2017,09,21,08,36,11.60
2017,09,21,08,37,11.60
2017,09,21,08,38,11.60
2017,09,21,08,39,11.70
2017,09,21,08,40,11.70
2017,09,21,08,41,11.70
2017,09,21,08,42,11.80
2017,09,21,08,43,11.80
2017,09,21,08,44,11.80
2017,09,21,08,45,11.80
2017,09,21,08,46,11.80
2017,09,21,08,47,11.90
2017,09,21,08,48,11.90
2017,09,21,08,49,11.90
2017,09,21,08,50,11.90
2017,09,21,08,51,11.90
2017,09,21,08,52,11.90
2017,09,21,08,53,12.00
2017,09,21,08,54,11.90
2017,09,21,08,55,11.90
2017,09,21,08,56,12.00
2017,09,21,08,57,12.00
2017,09,21,08,58,12.00
2017,09,21,08,59,12.00
2017,09,21,09,00,12.00
2017,09,21,09,01,12.00
2017,09,21,09,02,12.10
2017,09,21,09,03,12.20
2017,09,21,09,04,12.30
2017,09,21,09,05,12.30
2017,09,21,09,06,12.30
2017,09,21,09,07,12.30
2017,09,21,09,08,12.30
2017,09,21,09,09,12.40
2017,09,21,09,10,12.40
2017,09,21,09,11,12.50
2017,09,21,09,12,12.50
2017,09,21,09,13,12.50
2017,09,21,09,14,12.50
2017,09,21,09,15,12.50
2017,09,21,09,16,12.60
2017,09,21,09,17,12.60
2017,09,21,09,18,12.70
2017,09,21,09,19,12.70
2017,09,21,09,20,12.80
2017,09,21,09,21,12.80
2017,09,21,09,22,12.80
2017,09,21,09,23,12.80
2017,09,21,09,24,12.80
2017,09,21,09,25,12.80
2017,09,21,09,26,12.80
2017,09,21,09,27,12.90
2017,09,21,09,28,12.90
2017,09,21,09,29,12.90
2017,09,21,09,30,12.90
2017,09,21,09,31,13.00
2017,09,21,09,32,13.00
2017,09,21,09,33,13.00
2017,09,21,09,34,13.00
2017,09,21,09,35,13.00
2017,09,21,09,36,13.00
2017,09,21,09,37,13.00
2017,09,21,09,38,13.10
2017,09,21,09,39,13.20
2017,09,21,09,40,13.20
2017,09,21,09,41,13.30
2017,09,21,09,42,13.30
2017,09,21,09,43,13.30
2017,09,21,09,44,13.40
2017,09,21,09,45,13.40
2017,09,21,09,46,13.40
2017,09,21,09,47,13.40
2017,09,21,09,48,13.50
2017,09,21,09,49,13.50
2017,09,21,09,50,13.50
2017,09,21,09,51,13.50
2017,09,21,09,52,13.50
2017,09,21,09,53,13.50
2017,09,21,09,54,13.50
2017,09,21,09,55,13.50
2017,09,21,09,56,13.50
2017,09,21,09,57,13.60
2017,09,21,09,58,13.60
2017,09,21,09,59,13.60
2017,09,21,10,00,13.60
2017,09,21,10,01,13.60
2017,09,21,10,02,13.60
2017,09,21,10,03,13.60
2017,09,21,10,04,13.60
2017,09,21,10,05,13.60
2017,09,21,10,06,13.60
2017,09,21,10,07,13.70
2017,09,21,10,08,13.70
2017,09,21,10,09,13.70
2017,09,21,10,10,13.70
2017,09,21,10,11,13.80
2017,09,21,10,12,13.80
2017,09,21,10,13,13.70
2017,09,21,10,14,13.70
2017,09,21,10,15,13.80
2017,09,21,10,16,13.80
2017,09,21,10,17,13.80
2017,09,21,10,18,13.80
2017,09,21,10,19,13.90
2017,09,21,10,20,13.90
2017,09,21,10,21,13.90
2017,09,21,10,22,14.00
2017,09,21,10,23,14.00
2017,09,21,10,24,14.10
2017,09,21,10,25,14.10
2017,09,21,10,26,14.20
2017,09,21,10,27,14.20
2017,09,21,10,28,14.20
2017,09,21,10,29,14.10
2017,09,21,10,30,14.10
2017,09,21,10,31,14.20
2017,09,21,10,32,14.10
2017,09,21,10,33,14.10
2017,09,21,10,34,14.10
2017,09,21,10,35,14.10
2017,09,21,10,36,14.10
2017,09,21,10,37,14.10
2017,09,21,10,38,14.10
2017,09,21,10,39,14.20
2017,09,21,10,40,14.20
2017,09,21,10,41,14.20
2017,09,21,10,42,14.20
2017,09,21,10,43,14.20
2017,09,21,10,44,14.20
2017,09,21,10,45,14.20
2017,09,21,10,46,14.20
2017,09,21,10,47,14.20
2017,09,21,10,48,14.20
2017,09,21,10,49,14.30
2017,09,21,10,50,14.30
2017,09,21,10,51,14.30
2017,09,21,10,52,14.40
2017,09,21,10,53,14.40
2017,09,21,10,54,14.50
2017,09,21,10,55,14.50
2017,09,21,10,56,14.60
2017,09,21,10,57,14.60
2017,09,21,10,58,14.60
2017,09,21,10,59,14.70
2017,09,21,11,00,14.70
2017,09,21,11,01,14.70
2017,09,21,11,02,14.70
2017,09,21,11,03,14.70
2017,09,21,11,04,14.70
2017,09,21,11,05,14.80
2017,09,21,11,06,14.80
2017,09,21,11,07,14.80
2017,09,21,11,08,14.80
2017,09,21,11,09,14.80
2017,09,21,11,10,14.80
2017,09,21,11,11,14.90
2017,09,21,11,12,14.90
2017,09,21,11,13,14.90
2017,09,21,11,14,14.90
2017,09,21,11,15,15.00
2017,09,21,11,16,15.10
2017,09,21,11,17,15.10
2017,09,21,11,18,15.10
2017,09,21,11,19,15.00
2017,09,21,11,20,15.00
2017,09,21,11,21,15.00
2017,09,21,11,22,15.10
2017,09,21,11,23,15.00
2017,09,21,11,24,15.00
2017,09,21,11,25,15.00
2017,09,21,11,26,15.00
2017,09,21,11,27,15.10
2017,09,21,11,28,15.10
2017,09,21,11,29,15.20
2017,09,21,11,30,15.20
2017,09,21,11,31,15.20
2017,09,21,11,32,15.20
2017,09,21,11,33,15.20
2017,09,21,11,34,15.20
2017,09,21,11,35,15.20
2017,09,21,11,36,15.30
2017,09,21,11,37,15.30
2017,09,21,11,38,15.30
2017,09,21,11,39,15.20
2017,09,21,11,40,15.20
2017,09,21,11,41,15.30
2017,09,21,11,42,15.30
2017,09,21,11,43,15.30
2017,09,21,11,44,15.30
2017,09,21,11,45,15.30
2017,09,21,11,46,15.30
2017,09,21,11,47,15.40
2017,09,21,11,48,15.40
2017,09,21,11,49,15.50
2017,09,21,11,50,15.50
2017,09,21,11,51,15.60
2017,09,21,11,52,15.60
2017,09,21,11,53,15.70
2017,09,21,11,54,15.70
2017,09,21,11,55,15.70
2017,09,21,11,56,15.70
2017,09,21,11,57,15.70
2017,09,21,11,58,15.70
2017,09,21,11,59,15.70
2017,09,21,12,00,15.70
2017,09,21,12,01,15.80
2017,09,21,12,02,15.80
2017,09,21,12,03,15.80
2017,09,21,12,04,15.70
2017,09,21,12,05,15.60
2017,09,21,12,06,15.60
2017,09,21,12,07,15.60
2017,09,21,12,08,15.50
2017,09,21,12,09,15.60
2017,09,21,12,10,15.60
2017,09,21,12,11,15.60
2017,09,21,12,12,15.70
2017,09,21,12,13,15.70
2017,09,21,12,14,15.70
2017,09,21,12,15,15.70
2017,09,21,12,16,15.70
2017,09,21,12,17,15.70
2017,09,21,12,18,15.80
2017,09,21,12,19,15.90
2017,09,21,12,20,15.90
2017,09,21,12,21,15.90
2017,09,21,12,22,15.90
2017,09,21,12,23,15.90
2017,09,21,12,24,15.90
2017,09,21,12,25,15.90
2017,09,21,12,26,15.90
2017,09,21,12,27,16.00
2017,09,21,12,28,16.10
2017,09,21,12,29,16.10
2017,09,21,12,30,16.20
2017,09,21,12,31,16.20
2017,09,21,12,32,16.30
2017,09,21,12,33,16.30
2017,09,21,12,34,16.40
2017,09,21,12,35,16.40
2017,09,21,12,36,16.40
2017,09,21,12,37,16.40
2017,09,21,12,38,16.40
2017,09,21,12,39,16.40
2017,09,21,12,40,16.30
2017,09,21,12,41,16.30
2017,09,21,12,42,16.30
2017,09,21,12,43,16.30
2017,09,21,12,44,16.30
2017,09,21,12,45,16.30
2017,09,21,12,46,16.30
2017,09,21,12,47,16.30
2017,09,21,12,48,16.40
2017,09,21,12,49,16.40
2017,09,21,12,50,16.40
2017,09,21,12,51,16.40
2017,09,21,12,52,16.40
2017,09,21,12,53,16.50
2017,09,21,12,54,16.60
2017,09,21,12,55,16.60
2017,09,21,12,56,16.70
2017,09,21,12,57,16.70
2017,09,21,12,58,16.60
2017,09,21,12,59,16.50
2017,09,21,13,00,16.40
2017,09,21,13,01,16.40
2017,09,21,13,02,16.40
2017,09,21,13,03,16.30
2017,09,21,13,04,16.30
2017,09,21,13,05,16.20
2017,09,21,13,06,16.10
2017,09,21,13,07,16.10
2017,09,21,13,08,16.10
2017,09,21,13,09,16.10
2017,09,21,13,10,16.10
2017,09,21,13,11,16.20
2017,09,21,13,12,16.30
2017,09,21,13,13,16.30
2017,09,21,13,14,16.30
2017,09,21,13,15,16.30
2017,09,21,13,16,16.40
2017,09,21,13,17,16.40
2017,09,21,13,18,16.40
2017,09,21,13,19,16.40
2017,09,21,13,20,16.30
2017,09,21,13,21,16.30
2017,09,21,13,22,16.30
2017,09,21,13,23,16.30
2017,09,21,13,24,16.30
2017,09,21,13,25,16.30
2017,09,21,13,26,16.30
2017,09,21,13,27,16.40
2017,09,21,13,28,16.40
2017,09,21,13,29,16.40
2017,09,21,13,30,16.60
2017,09,21,13,31,16.70
2017,09,21,13,32,16.70
2017,09,21,13,33,16.80
2017,09,21,13,34,16.80
2017,09,21,13,35,16.80
2017,09,21,13,36,16.80
2017,09,21,13,37,16.80
2017,09,21,13,38,16.90
2017,09,21,13,39,16.90
2017,09,21,13,40,17.00
2017,09,21,13,41,17.00
2017,09,21,13,42,17.00
2017,09,21,13,43,17.10
2017,09,21,13,44,17.20
2017,09,21,13,45,17.20
2017,09,21,13,46,17.30
2017,09,21,13,47,17.30
2017,09,21,13,48,17.30
2017,09,21,13,49,17.30
2017,09,21,13,50,17.30
2017,09,21,13,51,17.40
2017,09,21,13,52,17.40
2017,09,21,13,53,17.40
2017,09,21,13,54,17.40
2017,09,21,13,55,17.40
2017,09,21,13,56,17.40
2017,09,21,13,57,17.30
2017,09,21,13,58,17.30
2017,09,21,13,59,17.30
2017,09,21,14,00,17.30
2017,09,21,14,01,17.30
2017,09,21,14,02,17.30
2017,09,21,14,03,17.40
2017,09,21,14,04,17.40
2017,09,21,14,05,17.50
2017,09,21,14,06,17.60
2017,09,21,14,07,17.60
2017,09,21,14,08,17.60
2017,09,21,14,09,17.70
2017,09,21,14,10,17.70
2017,09,21,14,11,17.60
2017,09,21,14,12,17.60
2017,09,21,14,13,17.60
2017,09,21,14,14,17.60
2017,09,21,14,15,17.60
2017,09,21,14,16,17.60
2017,09,21,14,17,17.60
2017,09,21,14,18,17.50
2017,09,21,14,19,17.50
2017,09,21,14,20,17.50
2017,09,21,14,21,17.50
2017,09,21,14,22,17.60
2017,09,21,14,23,17.60
2017,09,21,14,24,17.60
2017,09,21,14,25,17.60
2017,09,21,14,26,17.60
2017,09,21,14,27,17.60
2017,09,21,14,28,17.60
2017,09,21,14,29,17.70
2017,09,21,14,30,17.80
2017,09,21,14,31,17.80
2017,09,21,14,32,17.70
2017,09,21,14,33,17.60
2017,09,21,14,34,17.60
2017,09,21,14,35,17.50
2017,09,21,14,36,17.50
2017,09,21,14,37,17.40
2017,09,21,14,38,17.40
2017,09,21,14,39,17.30
2017,09,21,14,40,17.40
2017,09,21,14,41,17.40
2017,09,21,14,42,17.50
2017,09,21,14,43,17.70
2017,09,21,14,44,17.80
2017,09,21,14,45,17.90
2017,09,21,14,46,17.90
2017,09,21,14,47,17.90
2017,09,21,14,48,18.00
2017,09,21,14,49,18.10
2017,09,21,14,50,18.10
2017,09,21,14,51,18.00
2017,09,21,14,52,17.90
2017,09,21,14,53,17.90
2017,09,21,14,54,18.00
2017,09,21,14,55,18.10
2017,09,21,14,56,18.10
2017,09,21,14,57,18.10
2017,09,21,14,58,18.20
2017,09,21,14,59,18.20
2017,09,21,15,00,18.30
2017,09,21,15,01,18.30
2017,09,21,15,02,18.40
2017,09,21,15,03,18.40
2017,09,21,15,04,18.40
2017,09,21,15,05,18.40
2017,09,21,15,06,18.50
2017,09,21,15,07,18.50
2017,09,21,15,08,18.50
2017,09,21,15,09,18.60
2017,09,21,15,10,18.60
2017,09,21,15,11,18.70
2017,09,21,15,12,18.70
2017,09,21,15,13,18.80
2017,09,21,15,14,18.90
2017,09,21,15,15,18.90
2017,09,21,15,16,18.90
2017,09,21,15,17,18.90
2017,09,21,15,18,18.80
2017,09,21,15,19,18.60
2017,09,21,15,20,18.50
2017,09,21,15,21,18.40
2017,09,21,15,22,18.30
2017,09,21,15,23,18.20
2017,09,21,15,24,18.10
2017,09,21,15,25,18.00
2017,09,21,15,26,17.90
2017,09,21,15,27,17.90
2017,09,21,15,28,17.90
2017,09,21,15,29,17.90
2017,09,21,15,30,17.90
2017,09,21,15,31,18.00
2017,09,21,15,32,18.10
2017,09,21,15,33,18.20
2017,09,21,15,34,18.20
2017,09,21,15,35,18.20
2017,09,21,15,36,18.30
2017,09,21,15,37,18.50
2017,09,21,15,38,18.50
2017,09,21,15,39,18.60
2017,09,21,15,40,18.70
2017,09,21,15,41,18.90
2017,09,21,15,42,18.90
2017,09,21,15,43,18.90
2017,09,21,15,44,18.90
2017,09,21,15,45,18.70
2017,09,21,15,46,18.60
2017,09,21,15,47,18.50
2017,09,21,15,48,18.40
2017,09,21,15,49,18.40
2017,09,21,15,50,18.20
2017,09,21,15,51,18.20
2017,09,21,15,52,18.10
2017,09,21,15,53,18.10
2017,09,21,15,54,18.10
2017,09,21,15,55,18.00
2017,09,21,15,56,17.90
2017,09,21,15,57,17.90
2017,09,21,15,58,17.80
2017,09,21,15,59,17.90
2017,09,21,16,00,17.90
2017,09,21,16,01,17.90
2017,09,21,16,02,17.90
2017,09,21,16,03,17.90
2017,09,21,16,04,17.90
2017,09,21,16,05,17.90
2017,09,21,16,06,17.90
2017,09,21,16,07,17.90
2017,09,21,16,08,17.90
2017,09,21,16,09,18.00
2017,09,21,16,10,18.10
2017,09,21,16,11,18.20
2017,09,21,16,12,18.30
2017,09,21,16,13,18.30
2017,09,21,16,14,18.40
2017,09,21,16,15,18.40
2017,09,21,16,16,18.40
2017,09,21,16,17,18.40
2017,09,21,16,18,18.40
2017,09,21,16,19,18.50
2017,09,21,16,20,18.50
2017,09,21,16,21,18.60
2017,09,21,16,22,18.60
2017,09,21,16,23,18.50
2017,09,21,16,24,18.40
2017,09,21,16,25,18.40
2017,09,21,16,26,18.40
2017,09,21,16,27,18.40
2017,09,21,16,28,18.50
2017,09,21,16,29,18.50
2017,09,21,16,30,18.50
2017,09,21,16,31,18.40
2017,09,21,16,32,18.40
2017,09,21,16,33,18.30
2017,09,21,16,34,18.40
2017,09,21,16,35,18.40
2017,09,21,16,36,18.40
2017,09,21,16,37,18.50
2017,09,21,16,38,18.60
2017,09,21,16,39,18.60
2017,09,21,16,40,18.60
2017,09,21,16,41,18.40
2017,09,21,16,42,18.20
2017,09,21,16,43,18.00
2017,09,21,16,44,17.90
2017,09,21,16,45,17.90
2017,09,21,16,46,17.80
2017,09,21,16,47,17.80
2017,09,21,16,48,17.80
2017,09,21,16,49,17.80
2017,09,21,16,50,17.80
2017,09,21,16,51,17.90
2017,09,21,16,52,17.90
2017,09,21,16,53,18.00
2017,09,21,16,54,18.10
2017,09,21,16,55,18.20
2017,09,21,16,56,18.30
2017,09,21,16,57,18.40
2017,09,21,16,58,18.40
2017,09,21,16,59,18.50
2017,09,21,17,00,18.50
2017,09,21,17,01,18.60
2017,09,21,17,02,18.60
2017,09,21,17,03,18.60
2017,09,21,17,04,18.70
2017,09,21,17,05,18.60
2017,09,21,17,06,18.60
2017,09,21,17,07,18.60
2017,09,21,17,08,18.60
2017,09,21,17,09,18.70
2017,09,21,17,10,18.70
2017,09,21,17,11,18.70
2017,09,21,17,12,18.60
2017,09,21,17,13,18.50
2017,09,21,17,14,18.50
2017,09,21,17,15,18.40
2017,09,21,17,16,18.40
2017,09,21,17,17,18.30
2017,09,21,17,18,18.20
2017,09,21,17,19,18.20
2017,09,21,17,20,18.20
2017,09,21,17,21,18.10
2017,09,21,17,22,17.90
2017,09,21,17,23,17.80
2017,09,21,17,24,17.70
2017,09,21,17,25,17.60
2017,09,21,17,26,17.50
2017,09,21,17,27,17.40
2017,09,21,17,28,17.30
2017,09,21,17,29,17.30
2017,09,21,17,30,17.20
2017,09,21,17,31,17.20
2017,09,21,17,32,17.20
2017,09,21,17,33,17.00
2017,09,21,17,34,17.00